AO-07 1 07530U 74089B 23250.79313955 -.00000029 00000-0 10634-3 0 9996 2 07530 101.9553 238.0478 0011835 266.2790 215.9527 12.53666665233761 UO-11 1 14781U 84021B 23250.73179722 .00001781 00000-0 21374-3 0 9993 2 14781 97.6660 224.5145 0006586 296.7049 63.3492 14.85208752127393 AO-16 1 20439U 90005D 23250.43411429 .00000227 00000-0 99775-4 0 9994 2 20439 98.8899 242.7981 0010163 328.2837 188.2912 14.33154544756685 LO-19 1 20442U 90005G 23250.40636800 .00000221 00000-0 97134-4 0 9998 2 20442 98.8524 228.7115 0010773 300.9938 59.0187 14.33308840757122 AO-27 1 22825U 93061C 23250.54362882 .00000117 00000-0 62773-4 0 9996 2 22825 98.8342 294.7343 0008424 180.4346 179.6830 14.30340780562064 IO-26 1 22826U 93061D 23250.10656856 .00000169 00000-0 81962-4 0 9994 2 22826 98.8289 294.1525 0009200 168.0991 192.0410 14.30705888562272 FO-29 1 24278U 96046B 23250.33811925 -.00000015 00000-0 21735-4 0 9991 2 24278 98.5377 217.7320 0349762 203.6696 154.8013 13.53153306336047 NOAA-15 1 25338U 98030A 23250.72153513 .00000211 00000-0 10560-3 0 9999 2 25338 98.6020 278.3517 0011465 75.2303 285.0146 14.26384249317020 GO-32 1 25397U 98043D 23250.36553404 .00000135 00000-0 78611-4 0 9998 2 25397 98.8766 208.5606 0000257 223.4694 136.6464 14.23905368307026 ISS 1 25544U 98067A 23250.91536127 .00010683 00000-0 19292-3 0 9990 2 25544 51.6414 278.6973 0005834 41.7804 20.4036 15.50286844414624 NO-44 1 26931U 01043C 23250.39652887 .00000211 00000-0 11158-3 0 9992 2 26931 67.0535 344.5462 0007530 260.2419 99.7833 14.30975985145343 SO-50 1 27607U 02058C 23250.40681215 .00002002 00000-0 29094-3 0 9997 2 27607 64.5574 12.8146 0060421 207.4297 152.3614 14.77569580114371 CO-55 1 27844U 03031E 23250.45647999 .00000391 00000-0 19338-3 0 9997 2 27844 98.6805 256.5181 0008638 244.7046 115.3237 14.22864665 47437 CO-57 1 27848U 03031J 23250.00378631 .00000352 00000-0 17804-3 0 9999 2 27848 98.6839 256.4554 0008467 263.4396 96.5818 14.22363753 47131 RS-22 1 27939U 03042A 23250.70750355 .00001492 00000-0 26520-3 0 9997 2 27939 98.2548 38.3519 0011500 232.7339 184.1203 14.68639430 66659 NOAA-18 1 28654U 05018A 23250.70383703 .00000259 00000-0 16261-3 0 9997 2 28654 98.9044 324.6779 0015020 143.6387 216.5809 14.13000553943222 CO-58 1 28895U 05043F 23249.57655583 .00001979 00000-0 36970-3 0 9992 2 28895 98.1641 21.0764 0016431 171.8878 188.2594 14.65968054952739 CO-65 1 32785U 08021C 23250.72070700 .00004698 00000-0 45726-3 0 9995 2 32785 97.7141 214.9784 0011830 179.2816 180.8423 14.92949968833201 AAUSAT2 1 32788U 08021F 23250.40876953 .00012932 00000-0 89803-3 0 9991 2 32788 97.5683 228.1220 0010342 79.3903 280.8488 15.05640403835479 DO-64 1 32789U 08021G 23250.48672933 .00117022 00000-0 20830-2 0 9992 2 32789 97.2964 272.0962 0008060 152.6484 207.5194 15.49682229840075 CO-66 1 32791U 08021J 23250.34228388 .00007732 00000-0 66272-3 0 9998 2 32791 97.6644 219.9422 0013707 128.1233 232.1227 14.97730447833950 RS-30 1 32953U 08025A 23250.69806906 .00000027 00000-0 12192-3 0 9990 2 32953 82.4976 265.7717 0019552 8.6038 351.5373 12.43128623693908 PRISM 1 33493U 09002B 23250.36807388 .00011334 00000-0 73273-3 0 9995 2 33493 98.2446 270.7522 0017318 127.6915 232.5884 15.08272400796129 NOAA-19 1 33591U 09005A 23250.68791473 .00000210 00000-0 13777-3 0 9993 2 33591 99.0926 297.9061 0013977 15.1858 344.9730 14.12816071751595 SRMSAT 1 37841U 11058D 23250.61013062 .00000470 00000-0 11296-3 0 9992 2 37841 19.9724 71.6706 0011798 217.5224 195.8673 14.10937205614465 HRBE 1 37855U 11061F 23250.00760342 .00030568 00000-0 84817-3 0 9994 2 37855 101.7105 258.1743 0109833 148.2320 212.5594 15.30965532649061 RS-40 1 38735U 12041C 23250.68272594 .00000030 00000-0 14377-3 0 9997 2 38735 82.4816 346.6539 0018469 116.6937 243.6036 12.42595769504063 ZACUBE-1 1 39417U 13066B 23250.55674054 .00005003 00000-0 56862-3 0 9996 2 39417 97.6927 209.3984 0054884 18.5479 341.7720 14.85604514529428 Delfi-N3xt 1 39428U 13066N 23250.57196272 .00005139 00000-0 72856-3 0 9992 2 39428 97.8293 172.5196 0107175 284.9385 73.9977 14.73531232524269 GOMX-1 1 39430U 13066Q 23250.72712128 .00002352 00000-0 40926-3 0 9993 2 39430 97.7672 137.0303 0146274 72.2988 289.4122 14.62163490521592 LO-74 1 39440U 13066AA 23250.39726977 .00003104 00000-0 39771-3 0 9996 2 39440 97.7768 196.5168 0076138 118.9879 241.8992 14.79960821526319 AO-73 1 39444U 13066AE 23250.35412035 .00006462 00000-0 70118-3 0 9993 2 39444 97.6784 211.8281 0052483 3.9338 356.2281 14.87471836527851 SPROUT 1 39770U 14029E 23250.32575652 .00027635 00000-0 18994-2 0 9995 2 39770 97.9933 20.2611 0005291 33.7184 326.4377 15.05891530504506 DTUSAT-2 1 40030U 14033W 23250.55778820 .00004691 00000-0 44674-3 0 9990 2 40030 97.9701 192.2079 0011516 27.4341 332.7484 14.93843314500294 EO-80 1 40032U 14033Y 23250.39917483 .00005573 00000-0 52952-3 0 9992 2 40032 97.9701 192.0639 0011618 30.3762 329.8128 14.93855906500246 HODOYOSHI-1 1 40299U 14070B 23250.72045559 .00013562 00000-0 39275-3 0 9991 2 40299 97.1862 311.3133 0009274 352.1059 8.0038 15.35650019491469 GRIFEX 1 40379U 15003D 23250.59783374 .00067560 00000-0 11630-2 0 9997 2 40379 99.0797 207.7095 0067769 348.4987 11.4706 15.48254647476107 XW-2C 1 40906U 15049H 23250.76298604 .00015080 00000-0 54390-3 0 9990 2 40906 97.4955 258.3000 0009551 220.3723 139.6808 15.28581460441001 XW-2D 1 40907U 15049J 23250.72981753 .00018225 00000-0 60955-3 0 9999 2 40907 97.4932 259.0504 0008822 209.4863 150.5881 15.31005058441109 LILACSAT-2 1 40908U 15049K 23250.76344122 .00006904 00000-0 31618-3 0 9992 2 40908 97.5285 253.6547 0011594 260.4333 99.5592 15.20759809440342 XW-2E 1 40909U 15049L 23250.71181840 .00045445 00000-0 98992-3 0 9995 2 40909 97.4509 266.2765 0008706 162.7995 197.3549 15.44100525441859 XW-2F 1 40910U 15049M 23250.74631174 .00043087 00000-0 96238-3 0 9991 2 40910 97.4604 265.5675 0009200 166.9115 193.2373 15.43362695441597 XW-2B 1 40911U 15049N 23250.73893326 .00017755 00000-0 59876-3 0 9990 2 40911 97.4910 259.4424 0008752 211.3303 148.7417 15.30742509440985 DCBB 1 40912U 15049P 23250.71021106 .00057665 00000-0 96276-3 0 9997 2 40912 97.4116 270.5537 0010423 129.0626 231.1555 15.51703431442373 IO-86 1 40931U 15052B 23250.59067432 .00001278 00000-0 87059-4 0 9999 2 40931 5.9986 218.2526 0012810 20.3608 339.7029 14.77342500429554 ChubuSat-2 1 41338U 16012B 23250.55210660 .00004320 00000-0 29339-3 0 9994 2 41338 31.0032 50.9638 0011999 280.5420 79.3865 15.04656192414793 ChubuSat-3 1 41339U 16012C 23250.75540575 .00003967 00000-0 27044-3 0 9995 2 41339 31.0098 46.9536 0011989 289.3554 70.5786 15.04453758414813 Horyu-4 1 41340U 16012D 23250.50426011 .00008103 00000-0 49208-3 0 9991 2 41340 31.0050 13.3739 0011149 350.9133 9.1302 15.09116756415162 e-st@r-II 1 41459U 16025D 23250.67815198 .00042078 00000-0 10544-2 0 9991 2 41459 98.1774 100.6491 0096410 170.1564 190.1596 15.35199205405534 LO-87 1 41557U 16033B 23250.68080693 .00193262 00000-0 12303-2 0 9991 2 41557 97.3871 2.7360 0006142 209.2491 150.8431 15.75857095406540 NuSat2 1 41558U 16033C 23250.55088910 .00258372 00000-0 10441-2 0 9993 2 41558 97.4145 11.7899 0006054 220.3007 139.7815 15.85654970406913 Lapan A3 1 41603U 16040E 23250.72950227 .00002875 00000-0 12519-3 0 9994 2 41603 97.1637 272.4879 0013425 32.7840 327.4228 15.22911259400051 Pratham 1 41783U 16059A 23250.51556441 .00000747 00000-0 14996-3 0 9997 2 41783 97.8648 277.9554 0032528 197.4214 162.5876 14.64108812371027 TY-1 1 41844U 16066D 23250.70875358 .00141328 00000-0 13204-2 0 9996 2 41844 97.3604 273.0110 0009496 115.0575 245.1672 15.66787847380544 CAS-2T 1 41847U 16066G 23250.23908931 .00000931 00000-0 14841-3 0 9994 2 41847 98.4976 318.3871 0357857 311.3304 45.7594 14.39982571358616 CAS-4B 1 42759U 17034B 23250.75951147 .00009966 00000-0 47867-3 0 9998 2 42759 43.0168 16.1537 0012342 275.8067 84.1374 15.18898764344185 CAS-4A 1 42761U 17034D 23250.70957342 .00010908 00000-0 52233-3 0 9990 2 42761 43.0161 14.9537 0013137 277.0810 82.8544 15.18918156344182 NIUSat 1 42766U 17036B 23250.49596439 .00034781 00000-0 75598-3 0 9993 2 42766 97.1512 280.1886 0010651 151.8553 208.3273 15.44200649345299 Aalto 1 1 42775U 17036L 23250.03254451 .00023359 00000-0 60994-3 0 9991 2 42775 97.1473 277.8660 0010247 157.3709 202.7991 15.38743394345098 URSA MAIOR 1 42776U 17036M 23250.30213613 .00029408 00000-0 70533-3 0 9998 2 42776 97.1482 279.7445 0010133 152.4748 207.7038 15.41291919345221 Max Valier Sat 1 42778U 17036P 23250.31424248 .00029763 00000-0 67409-3 0 9991 2 42778 97.1473 283.4174 0008996 149.8417 210.3351 15.43023828345379 Pegasus 1 42784U 17036V 23250.40358667 .00068934 00000-0 10048-2 0 9998 2 42784 97.1397 287.2299 0007896 140.6001 219.5829 15.55444002345721 SUCHAI 1 1 42788U 17036Z 23250.32952246 .00252963 00000-0 13842-2 0 9998 2 42788 97.1293 292.7371 0006357 154.6165 205.5416 15.79125350346152 SKCUBE 1 42789U 17036AA 23249.83842149 .00117885 00000-0 12194-2 0 9995 2 42789 97.1334 289.5827 0007519 141.3046 218.8754 15.64320154345829 VENTA 1 1 42791U 17036AC 23250.34133635 .00071726 00000-0 10304-2 0 9993 2 42791 97.1394 288.4049 0006989 139.2778 220.9001 15.55837758345776 Robusta 1B 1 42792U 17036AD 23250.34909319 .00198028 00000-0 14167-2 0 9990 2 42792 97.1298 291.9907 0006301 145.1244 215.0435 15.73125720346040 D-SAT 1 42794U 17036AF 23250.40473427 .00006518 00000-0 50563-3 0 9998 2 42794 97.4719 238.6991 0116051 26.2007 334.5023 14.96445144338224 TechnoSat 1 42829U 17042E 23250.51181475 .00002004 00000-0 19243-3 0 9991 2 42829 97.3875 83.0477 0012207 314.2219 45.7999 14.94065867334787 AO-91 1 43017U 17073E 23250.09475356 .00007562 00000-0 51800-3 0 9991 2 43017 97.6168 131.2184 0230244 158.1347 202.9893 14.87227319313350 PICSAT 1 43132U 18004X 23250.71594497 .00341220 00000-0 16288-2 0 9993 2 43132 97.3126 337.4887 0005276 228.3053 131.7764 15.81911632315472 AO-92 1 43137U 18004AC 23250.67692758 .00054786 00000-0 87481-3 0 9994 2 43137 97.3200 331.1281 0005247 187.4889 172.6286 15.53008257315077 TianYi 2 1 43155U 18008A 23250.74335045 .00025037 00000-0 89012-3 0 9998 2 43155 97.2904 301.4306 0011879 25.7119 334.4709 15.28916236311254 Zhou Enlai 1 43156U 18008B 23250.71250696 .00028694 00000-0 99184-3 0 9997 2 43156 97.2952 301.6612 0009497 28.3790 331.7966 15.29831711311189 TianYi 6 1 43158U 18008D 23250.58330448 .00018772 00000-0 73642-3 0 9995 2 43158 97.2969 298.0424 0010202 33.9335 326.2554 15.25738340310970 S-Net D 1 43186U 18014G 23250.52610215 .00003687 00000-0 29253-3 0 9998 2 43186 97.6146 152.7412 0012077 257.7553 102.2319 15.01072438305906 S-Net B 1 43187U 18014H 23250.52751700 .00003714 00000-0 29466-3 0 9991 2 43187 97.6149 152.6682 0012488 256.2251 103.7584 15.01068858305904 S-Net A 1 43188U 18014J 23250.32751355 .00003999 00000-0 31682-3 0 9994 2 43188 97.6153 152.5657 0012476 257.0435 102.9396 15.01070704305872 S-Net C 1 43189U 18014K 23250.53017216 .00003804 00000-0 30163-3 0 9997 2 43189 97.6160 152.6511 0013157 252.1118 107.8672 15.01067001304452 CubeBel-1 1 43666U 18083E 23250.54594706 .00042761 00000-0 93394-3 0 9998 2 43666 97.3745 282.9407 0009395 168.5884 191.5579 15.44028398269884 Changshagaoxin 1 43669U 18083H 23250.73357523 .00037413 00000-0 95834-3 0 9995 2 43669 97.3751 277.2459 0007576 165.7865 194.3595 15.39265416269624 Ten-Koh 1 43677U 18084G 23250.36826193 .00002606 00000-0 25300-3 0 9995 2 43677 98.0250 31.8421 0013914 234.5362 125.4559 14.93484309264328 PO-101 1 43678U 18084H 23250.72619340 .00001466 00000-0 14418-3 0 9991 2 43678 98.0348 36.4293 0008306 246.0725 113.9625 14.93718182264588 QO-100 1 43700U 18090A 23250.49986110 .00000133 00000-0 00000-0 0 9999 2 43700 0.0142 225.4196 0002692 340.6493 346.0286 1.00274406 17517 Reaktor Hello World 1 43743U 18096AA 23250.47401025 .00163485 00000-0 11208-2 0 9991 2 43743 97.3091 340.6203 0008616 228.7144 131.3380 15.74199810267042 MinXSS-2 1 43758U 18099A 23250.65806775 .00007580 00000-0 57001-3 0 9996 2 43758 97.5967 313.1236 0019310 202.5498 157.4881 15.02689443260122 AO-95 1 43770U 18099N 23250.19426772 .00006159 00000-0 48901-3 0 9994 2 43770 97.5761 309.5602 0013681 231.0346 128.9660 15.00765459259900 RANGE-B 1 43772U 18099Q 23250.09807870 .00008293 00000-0 62420-3 0 9990 2 43772 97.5682 312.4567 0007586 146.3246 213.8463 15.02746528259960 RANGE-A 1 43773U 18099R 23250.45283383 .00004451 00000-0 37050-3 0 9991 2 43773 97.5585 307.5990 0011728 188.4070 171.6959 14.99107123259882 MOVE-II 1 43780U 18099Y 23249.97299287 .00011432 00000-0 79990-3 0 9990 2 43780 97.5648 312.3323 0007546 224.4119 135.6503 15.05407607260034 SNUSat 2 1 43782U 18099AA 23250.43445007 .00004889 00000-0 39167-3 0 9998 2 43782 97.5603 310.2626 0014314 165.5877 194.5758 15.00510054259969 SnugLite 1 43784U 18099AC 23250.41823826 .00004985 00000-0 39323-3 0 9998 2 43784 97.5479 309.9085 0008949 178.4483 181.6771 15.01143082260002 ITASat 1 1 43786U 18099AE 23250.41840804 .00004337 00000-0 35029-3 0 9995 2 43786 97.5659 310.7862 0016756 211.6114 148.4104 15.00235293259973 EAGLET 1 1 43790U 18099AJ 23250.42041337 .00003121 00000-0 25751-3 0 9996 2 43790 97.5666 311.1860 0012248 211.8728 148.1756 14.99667225259706 ESEO 1 43792U 18099AL 23250.39806918 .00001834 00000-0 15999-3 0 9990 2 43792 97.5632 309.3759 0011751 200.5016 159.5736 14.97991613259691 CSIM 1 43793U 18099AM 23250.11222272 .00010997 00000-0 76071-3 0 9994 2 43793 97.5703 313.8982 0015284 201.6782 158.3799 15.05774879259909 Astrocast 0.1 1 43798U 18099AS 23250.40822612 .00010650 00000-0 77161-3 0 9992 2 43798 97.5761 313.4246 0012124 181.0812 179.0389 15.04084029260123 JO-97 1 43803U 18099AX 23250.42633464 .00006478 00000-0 50005-3 0 9997 2 43803 97.5678 310.9519 0012795 174.2223 185.9152 15.01833020260030 Suomi 100 1 43804U 18099AY 23250.44291681 .00005796 00000-0 45162-3 0 9991 2 43804 97.5741 310.7236 0017404 190.5171 169.5692 15.01463380260036 Al Farabi 2 1 43805U 18099AZ 23250.15037677 .00007672 00000-0 56636-3 0 9996 2 43805 97.5532 311.5633 0012775 175.9126 184.2206 15.03464842260062 CHOMPTT 1 43855U 18104G 23250.56034823 .00030703 00000-0 65069-3 0 9994 2 43855 85.0254 109.9280 0011629 20.1059 340.0651 15.44863344263277 ISAT 1 43879U 18111D 23250.51731631 .00006453 00000-0 47618-3 0 9999 2 43879 97.6347 153.8528 0012177 238.9943 121.0087 15.03556073256701 UWE-4 1 43880U 18111E 23250.52607102 .00006131 00000-0 45571-3 0 9996 2 43880 97.6263 154.4537 0015734 250.6609 109.2916 15.03263472256739 Sparrow 1 43881U 18111F 23250.50441635 .00007077 00000-0 51706-3 0 9999 2 43881 97.6381 155.2873 0009411 291.6330 68.3893 15.03921931256756 Lume 1 1 43908U 18111AJ 23250.35209080 .00049415 00000-0 78900-3 0 9995 2 43908 97.1223 132.7020 0007608 252.3668 107.6755 15.53016360262111 FO-99 1 43937U 19003F 23250.66240276 .00125643 00000-0 12192-2 0 9992 2 43937 97.0773 277.5034 0005250 341.8826 18.2247 15.65928453258897 AstroCast 0.2 1 44083U 19018F 23250.11351946 .00119128 00000-0 12972-2 0 9995 2 44083 97.2550 311.2117 0004492 253.0558 107.0209 15.63022370247159 AISTechSat 3 1 44103U 19018AB 23250.55393025 .00034974 00000-0 71452-3 0 9994 2 44103 97.2440 308.6768 0006271 341.7169 18.3855 15.46064377247214 AISat 1 1 44104U 19018AC 23250.51996116 .00024947 00000-0 42478-3 0 9996 2 44104 97.3723 343.5809 0035644 317.7112 42.1392 15.50651393248465 Prox-1 1 44339U 19036A 23250.39185167 .00007950 00000-0 15606-2 0 9995 2 44339 23.9998 241.4932 0010069 95.2011 264.9631 14.60498939223623 Move-IIb 1 44398U 19038N 23250.58585136 .00100137 00000-0 16760-2 0 9996 2 44398 97.6638 237.9710 0009525 25.4270 334.7448 15.51474942231392 SONATE 1 44400U 19038Q 23250.40487371 .00013202 00000-0 55997-3 0 9995 2 44400 97.6914 229.8770 0020996 31.9080 328.3422 15.23046514230743 BeeSat 9 1 44412U 19038AC 23250.37822273 .00035667 00000-0 10694-2 0 9991 2 44412 97.6799 233.9966 0014759 27.7285 332.4741 15.34292475230741 JAISAT-1 1 44419U 19038F 23250.44316381 .00035250 00000-0 10488-2 0 9993 2 44419 97.6795 235.1783 0013902 24.6763 335.5142 15.34550237231137 Taurus 1 1 44530U 19059C 23250.71852808 .00005062 00000-0 12946-2 0 9998 2 44530 98.5586 359.8526 0013316 195.5106 164.5682 14.50817571210608 Duchifat 3 1 44854U 19089C 23250.56758728 .00008984 00000-0 58179-3 0 9994 2 44854 36.9621 318.4269 0008389 268.8564 91.1219 15.07671394205265 OPS-SAT 1 44878U 19092F 23250.24716292 .00030909 00000-0 80840-3 0 9991 2 44878 97.4738 80.2951 0007936 192.9457 167.1585 15.38663595206392 TO-108 1 44881U 19093C 23250.70060063 .00001140 00000-0 14752-3 0 9999 2 44881 97.8569 327.7398 0015088 163.9257 196.2439 14.82727753201020 FloripaSat 1 1 44885U 19093G 23250.49065017 .00004172 00000-0 47737-3 0 9990 2 44885 97.8639 330.7620 0014042 165.2978 194.8649 14.86461933201170 RS-44 1 44909U 19096E 23250.54785556 .00000007 00000-0 -13045-4 0 9993 2 44909 82.5190 293.2249 0217258 354.7175 5.1634 12.79722353172696 BY70-2 1 45857U 20042B 23250.69616198 .00026223 00000-0 24662-2 0 9992 2 45857 97.9209 331.0607 0009136 102.6735 257.5507 14.93827967171848 UPMSat 2 1 46276U 20061E 23250.41316619 .00010364 00000-0 41890-3 0 9996 2 46276 97.3393 316.3303 0002504 76.2289 283.9228 15.24920808166810 AmicalSat 1 46287U 20061R 23250.17478368 .00013885 00000-0 60691-3 0 9992 2 46287 97.3928 315.2290 0003201 140.0143 220.1329 15.22197506166176 SALSAT 1 46495U 20068K 23250.52613000 .00004874 00000-0 31569-3 0 9993 2 46495 97.7756 199.4706 0014655 192.6194 167.4669 15.08538509161483 CAPE 3 1 47309U 21002A 23250.60369170 .00045369 00000-0 87091-3 0 9997 2 47309 60.6737 100.6311 0012128 338.0697 21.9881 15.47599280147018 AO-109 1 47311U 21002C 23250.17924229 .00032947 00000-0 72588-3 0 9997 2 47311 60.6786 102.2559 0009808 339.9372 20.1338 15.43722974146929 ExoCube 2 1 47319U 21002L 23250.61445080 .00033258 00000-0 75575-3 0 9992 2 47319 60.6766 103.1303 0010733 338.1573 21.9064 15.42787733146912 UVSQ-SAT 1 47438U 21006AB 23250.14590996 .00017427 00000-0 65798-3 0 9999 2 47438 97.3761 306.1879 0010508 146.6615 213.5287 15.27025982145142 YUSAT 1 1 47439U 21006AC 23250.01607925 .00026628 00000-0 90517-3 0 9997 2 47439 97.3767 307.1812 0009931 144.5323 215.6580 15.30388087145194 SOMP 2b 1 47445U 21006AJ 23250.37395842 .00018657 00000-0 72237-3 0 9997 2 47445 97.3727 305.5301 0010235 150.7693 209.4120 15.26177419145146 IDEASSat 1 47458U 21006AX 23250.39216939 .00016255 00000-0 64511-3 0 9990 2 47458 97.3825 306.3486 0009728 149.4720 210.7086 15.25387225145124 CubeSX-Sirius-HSE 1 47951U 21022V 23250.74691075 .00010883 00000-0 58296-3 0 9997 2 47951 97.4851 146.8017 0019923 53.4591 306.8472 15.15012831135523 CubeSX-HSE 1 47952U 21022W 23250.71646140 .00011085 00000-0 59251-3 0 9995 2 47952 97.4853 146.8266 0019867 53.1487 307.1563 15.15083961135527 KSU-Cubesat 1 47954U 21022Y 23250.25453820 .00012687 00000-0 65790-3 0 9991 2 47954 97.4859 146.8718 0019196 53.1803 307.1187 15.16133434135203 GRBAlpha 1 47959U 21022AD 23250.56648190 .00010761 00000-0 57401-3 0 9997 2 47959 97.4855 146.7757 0019724 54.0805 306.2254 15.15166336134328 Orbicraft-Zorkiy 1 47960U 21022AE 23250.74676283 .00012659 00000-0 65875-3 0 9995 2 47960 97.4886 147.5080 0019171 51.9938 308.3022 15.16011264135069 STECCO 1 47962U 21022AG 23250.52400384 .00025240 00000-0 10567-2 0 9997 2 47962 97.4856 150.4601 0013671 44.1194 316.1131 15.23455258134562 MO-110 1 47964U 21022AJ 23250.26239964 .00026946 00000-0 10943-2 0 9996 2 47964 97.4868 150.9242 0015236 39.1945 321.0393 15.24446572134565 FEES 1 48082U 21022AL 23250.38314243 .00051704 00000-0 15593-2 0 9991 2 48082 97.4848 153.2651 0010613 39.6590 320.5427 15.34071115134436 TUBIN 1 48900U 21059X 23250.69959693 .00009650 00000-0 43882-3 0 9994 2 48900 97.6102 24.9601 0008570 2.6530 357.4749 15.20917508121715 IT-SPINS 1 49017U 21013G 23250.41128054 .00047688 00000-0 88166-3 0 9990 2 49017 51.5907 33.7618 0007169 270.9819 89.0347 15.48546068122426 LEDSAT 1 49069U 21073D 23250.15927034 .00010209 00000-0 53699-3 0 9991 2 49069 97.4755 319.7009 0023267 193.3062 166.7560 15.15610067113312 CUTE 1 49263U 21088D 23250.16073635 .00009391 00000-0 57695-3 0 9993 2 49263 97.5370 314.6007 0016374 346.6099 13.4694 15.10181210106651 TeikyoSat 4 1 49396U 21102B 23250.58403438 .00001276 00000-0 10015-3 0 9990 2 49396 97.5050 300.0131 0014597 151.8404 208.3614 15.02579400100149 Z-Sat 1 49399U 21102E 23250.72177520 .00002829 00000-0 20034-3 0 9996 2 49399 97.4770 301.2836 0022851 144.5394 215.7357 15.05404528100309 KOSEN 1 1 49402U 21102H 23250.62829586 .00005370 00000-0 35737-3 0 9996 2 49402 97.4697 301.8548 0021745 133.8068 226.4963 15.07352397100375 HO-113 1 50466U 21131B 23250.77583825 .00000567 00000-0 19788-3 0 9990 2 50466 98.5484 332.0578 0003223 244.9906 115.0947 14.39034857 89236 Tevel-3 1 50988U 22002E 23250.75854044 .00026138 00000-0 93982-3 0 9999 2 50988 97.4257 317.3292 0005564 302.7360 57.3343 15.28592270 91369 Tevel-8 1 50989U 22002F 23250.71561465 .00025777 00000-0 92907-3 0 9992 2 50989 97.4275 317.3542 0005523 302.1738 57.8966 15.28515708 91352 Tevel-5 1 50998U 22002Q 23250.72008833 .00027083 00000-0 94458-3 0 9993 2 50998 97.4253 317.7807 0006558 295.2620 64.7941 15.29576615 91396 Tevel-6 1 50999U 22002R 23250.71867339 .00026909 00000-0 93864-3 0 9993 2 50999 97.4251 317.7720 0006569 294.9084 65.1473 15.29572853 91396 Tevel-1 1 51013U 22002AF 23250.70564754 .00024828 00000-0 89460-3 0 9990 2 51013 97.4249 317.2045 0005428 302.7550 57.3167 15.28533611 91352 Grizu-263a 1 51025U 22002AT 23250.19290558 .00303584 00000-0 24348-2 0 9996 2 51025 97.4316 326.0647 0008474 250.3813 109.6535 15.70068053 91800 NO-116 1 51031U 22002AZ 23250.13990474 .00050857 00000-0 12859-2 0 9997 2 51031 97.4365 320.9272 0006950 284.6917 75.3558 15.39596783 91489 IRIS-A 1 51044U 22002BN 23250.15467377 .00010494 00000-0 47534-3 0 9996 2 51044 97.4271 314.4182 0006545 320.4967 39.5790 15.21035459 91110 Tevel-7 1 51062U 22002CG 23250.71538185 .00025626 00000-0 92295-3 0 9991 2 51062 97.4270 317.3250 0005498 301.5256 58.5446 15.28541720 91359 Tevel-4 1 51063U 22002CH 23250.72479010 .00026121 00000-0 94267-3 0 9996 2 51063 97.4268 317.3086 0005501 301.3820 58.6881 15.28472147 91354 Tevel-2 1 51069U 22002CP 23250.76004774 .00025870 00000-0 93003-3 0 9994 2 51069 97.4254 317.2995 0005505 302.5096 57.5611 15.28600337 91369 DELFI-PQ 1 51074U 22002CU 23250.20454111 .00062451 00000-0 13465-2 0 9992 2 51074 97.4509 324.0271 0006581 310.4682 49.5991 15.44341359 91620 SO-115 1 51080U 22002DA 23250.42030188 .00032947 00000-0 10327-2 0 9998 2 51080 97.4533 321.5630 0008095 331.4380 28.6417 15.32972508 91472 SO-114 1 51081U 22002DB 23250.65823318 .00031257 00000-0 97196-3 0 9992 2 51081 97.4529 321.7921 0008239 330.0339 30.0431 15.33235927 91518 OreSat0 1 52017U 22026K 23250.44775751 .00019649 00000-0 71807-3 0 9994 2 52017 97.5114 253.2688 0022372 148.2675 211.9918 15.27893647 82099 Planetum 1 1 52738U 22057G 23250.29400572 .00016515 00000-0 70983-3 0 9990 2 52738 97.5441 6.3923 0007246 68.1754 292.0252 15.22717448 71146 Foresail-1 1 52766U 22057AL 23250.79818405 .00011551 00000-0 52087-3 0 9994 2 52766 97.5566 7.7717 0012274 47.2517 312.9749 15.21119945 71233 SNUGLITE 2 1 52899U 22065F 23250.35550089 .00001394 00000-0 30289-3 0 9997 2 52899 98.0806 32.9743 0007142 327.3244 32.7513 14.59530069 62846 CTIM 1 52950U 22074G 23250.10219182 .00061665 00000-0 96069-3 0 9999 2 52950 44.9964 258.3162 0013025 40.4272 319.7587 15.52998324 66297 IO-117 1 53106U 22080B 23248.51952417 -.00000003 00000-0 00000-0 0 9994 2 53106 70.1477 291.8088 0008558 171.6392 188.4412 6.42557127 26919 AstroBioCubeSat 1 53107U 22080C 23025.30817895 -.00000003 00000-0 00000-0 0 9995 2 53107 70.1710 9.4734 0013545 210.3158 149.6718 6.42110537 12478 SelfieSat 1 53951U 22057BC 23250.74328136 .00023807 00000-0 95006-3 0 9998 2 53951 97.5483 7.7854 0008488 57.3979 302.8077 15.25136337 71258 FO-118 1 54684U 22167C 23250.76941606 .00014519 00000-0 75561-3 0 9993 2 54684 97.5726 27.9459 0013545 53.6763 306.5718 15.16059437 41184 SSS-2B 1 56184U 23054G 23250.72046435 .00015145 00000-0 61051-3 0 9993 2 56184 97.3980 144.6218 0012674 103.1586 257.1067 15.24850327 22742 CIRBE 1 56188U 23054L 23250.27264175 .00018612 00000-0 72677-3 0 9998 2 56188 97.3936 144.2120 0011236 98.2674 261.9839 15.25886756 22689 INSPIRE-Sat 7 1 56211U 23054AK 23250.64050844 .00020652 00000-0 75905-3 0 9996 2 56211 97.3955 144.9876 0016164 83.0390 277.2687 15.27807307 22761 RoseyCubesat 1 1 56212U 23054AL 23250.48469090 .00021704 00000-0 78709-3 0 9990 2 56212 97.3964 144.9018 0016404 83.1168 277.1937 15.28234698 22744 ARKSAT 1 1 56311U 98067VC 23250.58532579 .00138873 00000-0 10588-2 0 9996 2 56311 51.6338 270.6153 0010185 34.6459 325.5201 15.71214852 21258 AuroraSat 1 56312U 98067VD 23250.43613812 .00210049 00000-0 12158-2 0 9992 2 56312 51.6304 269.5906 0011389 33.4145 326.7572 15.77342685 21280 Ex-Alta 2 1 56313U 98067VE 23250.45295770 .00134206 00000-0 10135-2 0 9997 2 56313 51.6306 271.2113 0010112 32.4133 327.7485 15.71459393 21252 LightCube 1 56314U 98067VF 23250.28343720 .00196505 00000-0 12223-2 0 9998 2 56314 51.6302 270.8217 0011227 27.0167 333.1415 15.75755528 21273 NEUDOSE 1 56315U 98067VG 23250.35576768 .00090444 00000-0 89884-3 0 9990 2 56315 51.6330 274.3316 0009599 24.9840 335.1618 15.64931275 21187 YukonSat 1 56316U 98067VH 23250.30556117 .00106211 00000-0 91779-3 0 9998 2 56316 51.6326 273.2410 0010138 24.4233 335.7242 15.68321220 21218 URESAT-1 1 56992U 23084BU 23250.59585161 .00014271 00000-0 79474-3 0 9999 2 56992 97.5121 5.8195 0016728 294.5669 65.3819 15.13613859 13100 MRC-100 1 56993U 23084BV 23250.33051334 .00015341 00000-0 85199-3 0 9992 2 56993 97.5124 5.5673 0016935 295.5670 64.3810 15.13691650 13076 UmKA 1 (RS40S) 1 57172U 23091G 23250.75057396 .00004457 00000-0 32689-3 0 9992 2 57172 97.6585 300.7511 0018009 10.1490 350.0096 15.03891456 10842 CubeBel-2 (EU11S) 1 57175U 23091K 23250.77810547 .00005213 00000-0 38653-3 0 9990 2 57175 97.6559 300.7119 0017019 22.3208 337.8754 15.03410730 10848 /EX